Wind_Speed
6 8 11 7 3 2 3 3 5 8 10 10 10 11 14 15 18 19 20 22 22 23 24 25 24 23 22 21 20 21 20 20
9 10 4 4 4 5 6 5 6 7 8 9 11 13 15 17 18 20 22 23 24 26 27 27 27 26 25 25 25 24 22 23
11 6 4 4 4 5 4 5 7 8 10 11 13 13 15 16 16 19 22 24 26 27 28 30 30 30 30 28 27 29 28 27
7 4 2 1 5 3 3 4 4 5 7 10 14 15 16 19 21 21 22 23 24 24 27 28 27 28 31 31 30 30 29 31
8 6 2 1 6 5 4 6 8 7 8 11 14 16 19 21 24 25 27 28 28 27 26 27 26 23 23 25 27 27 28 29
16 7 6 4 3 1 4 6 8 11 14 16 18 21 22 22 22 25 26 24 24 25 26 27 26 24 23 21 22 23 24 27
17 12 10 6 3 5 6 9 11 15 19 21 21 23 23 24 23 23 21 20 21 23 25 26 28 28 28 26 26 26 25 25
21 16 12 9 7 8 11 13 16 18 21 21 21 22 22 21 21 21 20 20 24 27 28 28 28 27 27 28 27 26 28 32
22 23 10 10 11 12 16 17 20 22 24 24 23 22 22 24 24 26 27 27 29 31 31 31 31 32 34 36 37 35 31 28
29 18 16 13 18 16 19 21 22 23 26 22 26 29 31 30 29 29 28 28 29 31 30 30 31 31 31 33 36 38 39 41
9 23 23 22 22 19 22 23 23 24 23 23 32 35 34 35 34 35 36 34 36 35 33 34 33 33 34 34 33 35 38 41
17 25 22 22 29 24 21 22 24 31 32 28 38 33 38 37 39 41 40 41 42 37 35 37 35 36 36 37 35 34 34 35
19 22 24 22 27 26 26 28 33 33 32 36 36 37 42 38 40 43 39 44 43 42 41 38 39 37 38 39 39 37 37 36
18 22 23 22 29 31 28 38 36 35 34 36 41 46 47 49 47 48 47 40 42 40 39 40 41 40 41 44 47 46 43 40
20 23 23 24 31 34 39 37 37 37 39 48 52 55 52 37 42 42 42 40 38 40 41 43 47 45 46 47 47 49 51 49
18 22 23 27 33 34 36 38 39 50 49 40 38 38 39 40 38 38 39 43 42 44 46 49 50 52 53 52 51 53 57 59
23 28 30 32 34 36 40 46 46 46 44 46 43 45 42 39 41 43 46 50 51 50 52 53 55 56 55 55 53 48 46 48
25 26 30 34 37 39 41 40 40 45 50 53 51 48 46 45 48 51 52 54 54 55 56 56 55 53 46 43 42 44 46 46
21 23 25 31 39 42 40 46 52 54 49 48 48 50 49 50 52 51 54 57 57 57 53 45 46 38 38 41 41 40 39 40
30 31 30 34 38 43 48 53 53 48 49 49 51 50 49 49 53 54 56 56 53 53 47 39 35 34 35 35 34 35 38 35
Wind_Direction
296 304 300 301 303 314 312 311 320 330 329 330 331 327 327 328 329 328 325 322 318 315 313 312 312 310 310 306 299 298 297 298
293 295 295 360 16 19 13 355 331 328 321 323 319 325 324 326 322 316 313 310 309 307 308 305 303 304 303 300 300 297 295 295
285 299 334 14 45 42 24 4 346 340 344 330 327 335 328 330 322 317 313 314 310 309 307 305 305 304 301 297 295 295 298 293
273 269 285 14 46 62 53 5 343 351 353 344 344 347 333 331 327 323 322 317 312 314 311 311 312 310 312 312 308 302 298 295
248 267 230 181 87 43 27 7 359 345 347 343 343 339 335 334 330 326 326 324 324 329 325 325 328 322 315 314 313 313 310 303
275 243 219 180 159 89 23 349 357 346 342 331 326 324 328 326 319 319 316 319 323 328 333 333 329 328 327 320 315 313 311 309
261 260 241 218 246 294 314 330 327 324 317 317 317 318 319 321 322 320 320 321 330 335 335 331 329 326 324 322 319 315 312 311
256 269 237 255 281 294 303 310 310 311 312 308 310 315 319 321 321 320 317 319 326 326 326 324 322 319 313 310 307 304 306 307
236 266 289 270 284 288 289 302 303 306 307 301 302 313 317 317 320 326 325 322 323 323 323 321 318 316 315 315 314 313 307 298
258 208 278 284 281 281 280 287 297 305 307 313 309 310 312 320 317 317 314 313 315 315 313 311 304 300 301 304 307 310 310 310
294 283 289 280 284 274 276 285 292 302 301 290 304 307 305 313 306 307 305 307 310 308 302 303 298 296 296 297 297 296 297 300
248 270 282 279 289 287 281 285 295 305 295 289 297 295 300 301 303 301 303 306 305 305 294 293 289 289 289 289 291 290 286 286
252 264 262 270 281 283 288 299 302 287 288 291 293 293 292 295 295 297 311 305 302 298 293 288 288 286 287 288 288 287 290 293
250 262 268 278 277 283 289 291 282 278 280 286 290 290 290 300 303 302 302 297 298 292 287 287 286 286 289 292 293 289 288 289
263 276 293 290 282 285 284 282 287 292 292 293 298 300 304 301 298 301 296 296 296 293 293 291 289 288 291 292 289 284 285 285
293 298 298 296 286 279 279 287 294 293 305 309 305 303 296 301 297 294 297 299 300 296 292 290 288 285 286 286 282 282 285 284
311 303 294 290 286 286 292 292 297 302 307 307 308 308 312 307 303 302 300 301 299 297 296 292 291 292 291 288 285 280 271 268
301 293 302 298 294 296 295 302 302 306 309 309 309 310 304 303 302 301 302 303 302 301 300 299 297 295 293 286 286 282 282 279
301 299 298 302 305 303 305 306 312 310 305 307 305 303 303 303 303 303 302 303 306 305 304 292 291 291 287 285 285 290 288 287
317 315 313 308 304 304 305 306 307 307 300 304 304 298 303 306 305 308 307 307 307 306 304 297 295 290 287 291 290 288 291 293
Height
3174 3174 3174 3175 3173 3172 3171 3172 3172 3170 3173 3171 3170 3169 3168 3168 3168 3166 3164 3163 3162 3161 3160 3159 3158 3156 3155 3153 3152 3151 3150 3149
3174 3174 3175 3174 3173 3171 3172 3171 3171 3170 3171 3171 3169 3167 3167 3166 3166 3164 3163 3161 3159 3158 3157 3155 3154 3153 3151 3150 3148 3147 3148 3147
3174 3173 3173 3172 3171 3171 3171 3170 3171 3170 3171 3170 3168 3166 3164 3164 3164 3162 3160 3159 3156 3155 3153 3151 3149 3148 3146 3146 3145 3143 3143 3142
3173 3173 3174 3172 3170 3172 3172 3169 3170 3169 3170 3169 3167 3165 3165 3163 3162 3161 3159 3156 3154 3153 3150 3148 3147 3145 3141 3140 3139 3138 3138 3136
3173 3172 3172 3173 3169 3171 3172 3171 3169 3170 3171 3170 3169 3166 3163 3161 3159 3157 3154 3152 3148 3147 3145 3142 3141 3140 3139 3136 3134 3133 3132 3131
3171 3171 3171 3172 3171 3171 3172 3172 3170 3170 3169 3169 3167 3165 3163 3161 3159 3157 3154 3150 3148 3145 3143 3141 3139 3137 3135 3133 3132 3130 3128 3125
3166 3170 3168 3170 3169 3170 3171 3170 3170 3168 3168 3167 3165 3163 3161 3159 3157 3155 3152 3149 3145 3143 3140 3138 3135 3133 3131 3130 3129 3127 3125 3124
3163 3167 3169 3169 3166 3169 3169 3169 3168 3167 3164 3163 3162 3160 3159 3156 3154 3151 3149 3146 3143 3140 3137 3134 3132 3129 3127 3124 3123 3123 3120 3117
3171 3160 3167 3164 3164 3167 3166 3166 3165 3163 3161 3159 3158 3156 3154 3152 3150 3147 3144 3141 3138 3135 3132 3129 3125 3123 3120 3117 3114 3113 3112 3112
3153 3134 3164 3161 3161 3164 3164 3163 3162 3160 3157 3154 3151 3150 3148 3147 3145 3142 3139 3136 3133 3130 3128 3125 3122 3118 3116 3113 3109 3106 3103 3100
3165 3154 3159 3157 3161 3161 3161 3159 3159 3156 3155 3151 3149 3146 3143 3141 3138 3136 3133 3131 3128 3124 3120 3118 3114 3111 3109 3107 3105 3103 3100 3097
3165 3157 3156 3154 3156 3159 3157 3155 3154 3152 3150 3145 3143 3142 3138 3133 3131 3128 3125 3122 3119 3115 3112 3109 3106 3103 3101 3098 3097 3097 3095 3092
3162 3157 3157 3156 3155 3154 3154 3153 3150 3146 3145 3139 3136 3134 3131 3128 3124 3120 3118 3113 3109 3106 3103 3099 3097 3096 3091 3088 3086 3085 3083 3083
3159 3156 3156 3155 3151 3150 3151 3147 3144 3140 3136 3132 3130 3124 3120 3119 3117 3110 3108 3103 3101 3098 3094 3090 3087 3085 3082 3079 3072 3071 3073 3073
3155 3154 3155 3154 3148 3146 3143 3140 3138 3134 3133 3128 3125 3120 3114 3108 3105 3101 3097 3095 3092 3088 3084 3081 3075 3074 3073 3069 3063 3058 3056 3059
3153 3151 3151 3150 3145 3141 3138 3135 3132 3128 3124 3117 3113 3110 3104 3100 3098 3092 3089 3083 3081 3076 3072 3068 3065 3061 3059 3056 3054 3050 3045 3039
3149 3145 3144 3142 3140 3137 3134 3129 3124 3119 3114 3108 3103 3099 3094 3091 3087 3083 3078 3074 3069 3065 3059 3054 3051 3047 3043 3039 3039 3036 3035 3028
3145 3142 3137 3135 3132 3128 3125 3120 3115 3111 3104 3098 3094 3090 3085 3081 3077 3071 3066 3060 3055 3050 3044 3039 3034 3031 3028 3025 3022 3019 3017 3014
3140 3138 3135 3131 3123 3118 3115 3109 3104 3099 3094 3090 3085 3080 3076 3072 3065 3060 3053 3047 3041 3036 3032 3027 3022 3018 3015 3013 3011 3007 3006 3003
3132 3130 3128 3125 3120 3113 3106 3101 3096 3090 3085 3080 3075 3069 3065 3060 3053 3047 3040 3035 3028 3024 3020 3015 3011 3008 3005 3002 3000 2999 2997 2994